Tracking 25963 objects as of 12-Aug-2022
HD Live streaming from Space Station
objects crossing your sky now

ONEWEB-0436

Track ONEWEB-0436 now!
10-day predictions
ONEWEB-0436 is classified as:


NORAD ID: 51633
Int'l Code: 2022-012M
Perigee: 591.1 km
Apogee: 593.8 km
Inclination: 87.2 °
Period: 96.4 minutes
Semi major axis: 6963 km
RCS: Unknown
Launch date: February 10, 2022
Source: United Kingdom (UK)
Launch site: FRENCH GUIANA (FRGUI)
aabbcc
Your satellite tracking list
Your tracking list is empty




NASA's NSSDC Master Catalog

Two Line Element Set (TLE):
1 51633U 22012M   22223.91667824 -.00031747  00000-0 -29946-2 0  9995
2 51633  87.1837 296.4630 0001948 136.2510 344.0566 14.94067498 28587
Source of the keplerian elements: AFSPC